• In France
  • List of Countries
  • For 7 days
  • Water Temperature
  • Satellite Maps
  • Weather Map
  • Weather Widgets
  • user-avatar
    Login

    Hourly Weather Sylhet

    Today, 20 September, Wednesday

    Time Temperature Precipitation Wind Pressure Humidity
    00:00 +28°C° 0 mm 2 mps 753 mmHg 91%
    01:00 +27°C° 1.8 mm 2 mps 753 mmHg 91%
    02:00 +27°C° 1.8 mm 2 mps 753 mmHg 91%
    03:00 +27°C° 1.8 mm 3 mps 752 mmHg 91%
    04:00 +27°C° 1.2 mm 3 mps 753 mmHg 92%
    05:00 +27°C° 1.2 mm 2 mps 753 mmHg 92%
    06:00 +27°C° 0 mm 2 mps 753 mmHg 91%
    07:00 +28°C° 0.7 mm 2 mps 754 mmHg 90%
    08:00 +28°C° 0.7 mm 2 mps 754 mmHg 88%
    09:00 +29°C° 0.7 mm 3 mps 754 mmHg 87%
    10:00 +30°C° 0.8 mm 3 mps 754 mmHg 84%
    11:00 +31°C° 0.8 mm 3 mps 754 mmHg 81%
    12:00 +33°C° 0.8 mm 3 mps 754 mmHg 78%
    13:00 +31°C° 1.6 mm 3 mps 753 mmHg 79%
    14:00 +31°C° 1.6 mm 3 mps 753 mmHg 79%
    15:00 +31°C° 1.6 mm 3 mps 752 mmHg 80%
    16:00 +31°C° 0.7 mm 2 mps 752 mmHg 83%
    17:00 +30°C° 0.7 mm 2 mps 752 mmHg 85%
    18:00 +29°C° 0.7 mm 2 mps 752 mmHg 88%
    19:00 +29°C° 1.2 mm 2 mps 753 mmHg 88%
    20:00 +28°C° 1.2 mm 2 mps 753 mmHg 89%
    21:00 +28°C° 1.2 mm 2 mps 754 mmHg 89%
    22:00 +28°C° 1.1 mm 2 mps 754 mmHg 90%
    23:00 +28°C° 1.1 mm 2 mps 754 mmHg 90%

    Tomorrow, 21 September, Thursday

    Time Temperature Precipitation Wind Pressure Humidity
    00:00 +27°C° 1.1 mm 2 mps 754 mmHg 90%
    01:00 +27°C° 0.2 mm 2 mps 754 mmHg 91%
    02:00 +27°C° 0.2 mm 2 mps 754 mmHg 91%
    03:00 +27°C° 0.2 mm 2 mps 753 mmHg 92%
    04:00 +27°C° 0 mm 2 mps 753 mmHg 92%
    05:00 +26°C° 0 mm 2 mps 754 mmHg 93%
    06:00 +26°C° 0 mm 2 mps 754 mmHg 93%
    07:00 +28°C° 0 mm 2 mps 754 mmHg 88%
    08:00 +29°C° 0 mm 2 mps 755 mmHg 82%
    09:00 +31°C° 0 mm 3 mps 755 mmHg 77%
    10:00 +32°C° 0.5 mm 2 mps 754 mmHg 73%
    11:00 +34°C° 0.5 mm 2 mps 754 mmHg 68%
    12:00 +35°C° 0.5 mm 2 mps 753 mmHg 64%
    13:00 +35°C° 0.6 mm 2 mps 753 mmHg 64%
    14:00 +35°C° 0.6 mm 2 mps 752 mmHg 65%
    15:00 +36°C° 0.6 mm 2 mps 751 mmHg 65%
    16:00 +34°C° 1.1 mm 2 mps 751 mmHg 71%
    17:00 +32°C° 1.1 mm 2 mps 752 mmHg 77%
    18:00 +30°C° 1.1 mm 2 mps 752 mmHg 83%
    19:00 +30°C° 1 mm 2 mps 752 mmHg 85%
    20:00 +29°C° 1 mm 2 mps 753 mmHg 86%
    21:00 +29°C° 1 mm 2 mps 754 mmHg 88%
    22:00 +29°C° 0.9 mm 2 mps 754 mmHg 89%
    23:00 +28°C° 0.9 mm 2 mps 754 mmHg 90%

    Day after tomorrow, 22 September, Friday

    Time Temperature Precipitation Wind Pressure Humidity
    00:00 +28°C° 0.9 mm 2 mps 754 mmHg 90%
    01:00 +28°C° 0.8 mm 2 mps 754 mmHg 91%
    02:00 +28°C° 0.8 mm 2 mps 753 mmHg 91%
    03:00 +28°C° 0.8 mm 1 mps 753 mmHg 92%
    04:00 +28°C° 0.6 mm 1 mps 753 mmHg 92%
    05:00 +27°C° 0.6 mm 2 mps 754 mmHg 93%
    06:00 +27°C° 0.6 mm 2 mps 754 mmHg 93%
    07:00 +28°C° 0.1 mm 2 mps 754 mmHg 89%
    08:00 +30°C° 0.1 mm 2 mps 755 mmHg 85%
    09:00 +31°C° 0.1 mm 2 mps 755 mmHg 81%
    10:00 +32°C° 0.1 mm 1 mps 755 mmHg 76%
    11:00 +33°C° 0.1 mm 1 mps 754 mmHg 70%
    12:00 +34°C° 0.1 mm 1 mps 754 mmHg 65%
    13:00 +34°C° 0.4 mm 1 mps 753 mmHg 66%
    14:00 +34°C° 0.4 mm 1 mps 752 mmHg 66%
    15:00 +34°C° 0.4 mm 1 mps 751 mmHg 67%
    16:00 +33°C° 1.1 mm 1 mps 752 mmHg 72%
    17:00 +32°C° 1.1 mm 1 mps 752 mmHg 77%
    18:00 +31°C° 1.1 mm 1 mps 752 mmHg 82%
    19:00 +30°C° 1.4 mm 1 mps 752 mmHg 83%
    20:00 +30°C° 1.4 mm 1 mps 753 mmHg 84%
    21:00 +30°C° 1.4 mm 1 mps 754 mmHg 85%
    22:00 +29°C° 0.6 mm 1 mps 754 mmHg 86%
    23:00 +29°C° 0.6 mm 1 mps 754 mmHg 87%

    23 September, Saturday

    Time Temperature Precipitation Wind Pressure Humidity
    00:00 +29°C° 0.6 mm 1 mps 754 mmHg 88%
    01:00 +29°C° 0.4 mm 1 mps 753 mmHg 89%
    02:00 +28°C° 0.4 mm 1 mps 753 mmHg 90%
    03:00 +28°C° 0.4 mm 1 mps 753 mmHg 91%
    04:00 +28°C° 0.5 mm 1 mps 753 mmHg 92%
    05:00 +28°C° 0.5 mm 1 mps 754 mmHg 92%
    06:00 +28°C° 0.5 mm 1 mps 754 mmHg 92%
    07:00 +29°C° 0.4 mm 1 mps 754 mmHg 89%
    08:00 +30°C° 0.4 mm 2 mps 755 mmHg 85%
    09:00 +31°C° 0.4 mm 2 mps 755 mmHg 82%
    10:00 +32°C° 0.1 mm 1 mps 755 mmHg 76%
    11:00 +34°C° 0.1 mm 1 mps 754 mmHg 69%
    12:00 +35°C° 0.1 mm 1 mps 754 mmHg 63%
    13:00 +35°C° 0 mm 1 mps 753 mmHg 62%
    14:00 +36°C° 0 mm 1 mps 752 mmHg 61%
    15:00 +36°C° 0 mm 1 mps 751 mmHg 60%
    16:00 +35°C° 0 mm 1 mps 751 mmHg 64%
    17:00 +34°C° 0 mm 1 mps 752 mmHg 68%
    18:00 +32°C° 0 mm 1 mps 752 mmHg 72%
    19:00 +32°C° 0.1 mm 1 mps 752 mmHg 74%
    20:00 +31°C° 0.1 mm 1 mps 753 mmHg 77%
    21:00 +31°C° 0.1 mm 1 mps 754 mmHg 79%
    22:00 +31°C° 0.6 mm 1 mps 754 mmHg 81%
    23:00 +30°C° 0.6 mm 1 mps 753 mmHg 83%

    24 September, Sunday

    Time Temperature Precipitation Wind Pressure Humidity
    00:00 +30°C° 0.6 mm 1 mps 753 mmHg 85%
    01:00 +30°C° 0.8 mm 1 mps 753 mmHg 86%
    02:00 +29°C° 0.8 mm 1 mps 753 mmHg 88%
    03:00 +29°C° 0.8 mm 1 mps 753 mmHg 89%
    04:00 +29°C° 1 mm 1 mps 753 mmHg 90%
    05:00 +29°C° 1 mm 1 mps 753 mmHg 90%
    06:00 +27°C° 1 mm 0 mps 754 mmHg 90%
    07:00 +30°C° 0.2 mm 1 mps 754 mmHg 88%
    08:00 +30°C° 0.2 mm 1 mps 754 mmHg 85%
    09:00 +31°C° 0.2 mm 1 mps 755 mmHg 82%
    10:00 +32°C° 0.3 mm 1 mps 754 mmHg 77%
    11:00 +33°C° 0.3 mm 1 mps 754 mmHg 72%
    12:00 +34°C° 0.3 mm 1 mps 753 mmHg 67%
    13:00 +35°C° 0.3 mm 1 mps 752 mmHg 66%
    14:00 +35°C° 0.3 mm 1 mps 752 mmHg 65%
    15:00 +35°C° 0.3 mm 1 mps 751 mmHg 65%
    16:00 +34°C° 0 mm 1 mps 751 mmHg 69%
    17:00 +33°C° 0 mm 1 mps 751 mmHg 74%
    18:00 +32°C° 0 mm 1 mps 751 mmHg 78%
    19:00 +31°C° 0 mm 1 mps 752 mmHg 80%
    20:00 +31°C° 0 mm 1 mps 752 mmHg 82%
    21:00 +30°C° 0 mm 1 mps 753 mmHg 84%
    22:00 +30°C° 0 mm 1 mps 753 mmHg 84%
    23:00 +30°C° 0 mm 1 mps 753 mmHg 85%

    25 September, Monday

    Time Temperature Precipitation Wind Pressure Humidity
    00:00 +29°C° 0 mm 1 mps 752 mmHg 85%
    01:00 +29°C° 0 mm 1 mps 752 mmHg 85%
    02:00 +29°C° 0 mm 1 mps 752 mmHg 86%
    03:00 +29°C° 0 mm 1 mps 752 mmHg 86%
    04:00 +29°C° 0 mm 1 mps 752 mmHg 87%
    05:00 +29°C° 0 mm 1 mps 752 mmHg 88%
    06:00 +28°C° 0 mm 1 mps 753 mmHg 89%
    07:00 +30°C° 0 mm 1 mps 753 mmHg 84%
    08:00 +31°C° 0 mm 1 mps 753 mmHg 79%
    09:00 +33°C° 0 mm 1 mps 753 mmHg 73%
    10:00 +34°C° 0 mm 1 mps 753 mmHg 68%
    11:00 +36°C° 0 mm 1 mps 752 mmHg 62%
    12:00 +35°C° 0 mm 0 mps 752 mmHg 57%
    13:00 +37°C° 0.1 mm 1 mps 751 mmHg 55%
    14:00 +37°C° 0.1 mm 1 mps 750 mmHg 54%
    15:00 +37°C° 0.1 mm 1 mps 750 mmHg 53%
    16:00 +36°C° 0 mm 1 mps 750 mmHg 58%
    17:00 +35°C° 0 mm 1 mps 750 mmHg 62%
    18:00 +33°C° 0 mm 1 mps 750 mmHg 67%
    19:00 +33°C° 0 mm 1 mps 751 mmHg 70%
    20:00 +32°C° 0 mm 1 mps 751 mmHg 72%
    21:00 +31°C° 0 mm 1 mps 752 mmHg 75%
    22:00 +31°C° 0 mm 1 mps 752 mmHg 77%
    23:00 +31°C° 0 mm 1 mps 752 mmHg 78%
    Show more